TimeCST,TemperatureF,Dew PointF,Humidity,Sea Level PressureIn,VisibilityMPH,Wind Direction,Wind SpeedMPH,Gust SpeedMPH,PrecipitationIn,Events,Conditions,WindDirDegrees,DateUTC
12:35 AM,6.8,-0.4,72,30.10,10.0,WNW,13.8,-,N/A,,Clear,300,2013-02-20 06:35:00
12:55 AM,6.8,-0.4,72,30.11,10.0,WNW,13.8,-,N/A,,Clear,300,2013-02-20 06:55:00
1:15 AM,6.8,-0.4,72,30.12,10.0,WNW,12.7,-,N/A,,Clear,300,2013-02-20 07:15:00
1:35 AM,5.0,-0.4,78,30.12,10.0,WNW,12.7,-,N/A,,Clear,300,2013-02-20 07:35:00
1:55 AM,5.0,-0.4,78,30.13,10.0,WNW,13.8,-,N/A,,Clear,290,2013-02-20 07:55:00
2:15 AM,5.0,-0.4,78,30.13,10.0,WNW,13.8,-,N/A,,Clear,300,2013-02-20 08:15:00
2:35 AM,5.0,-0.4,78,30.15,10.0,WNW,13.8,-,N/A,,Clear,290,2013-02-20 08:35:00
2:55 AM,5.0,-0.4,78,30.15,10.0,WNW,15.0,-,N/A,,Clear,290,2013-02-20 08:55:00
3:15 AM,5.0,-0.4,78,30.17,10.0,West,15.0,-,N/A,,Clear,280,2013-02-20 09:15:00
3:35 AM,5.0,-0.4,78,30.17,10.0,West,13.8,-,N/A,,Clear,280,2013-02-20 09:35:00
3:55 AM,5.0,-0.4,78,30.18,10.0,West,13.8,-,N/A,,Clear,280,2013-02-20 09:55:00
4:15 AM,5.0,-0.4,78,30.19,10.0,West,15.0,-,N/A,,Clear,280,2013-02-20 10:15:00
5:20 AM,3.2,-2.2,78,30.20,10.0,WNW,13.8,-,N/A,,Clear,300,2013-02-20 11:20:00
5:45 AM,3.2,-2.2,78,30.21,10.0,WNW,13.8,-,N/A,,Clear,300,2013-02-20 11:45:00
6:45 AM,3.2,-2.2,78,30.23,10.0,WNW,12.7,-,N/A,,Partly Cloudy,290,2013-02-20 12:45:00
7:45 AM,3.2,-2.2,78,30.25,10.0,West,12.7,-,N/A,,Clear,280,2013-02-20 13:45:00
9:45 AM,10.4,3.2,73,30.25,10.0,NNW,6.9,-,N/A,,Clear,330,2013-02-20 15:45:00
10:45 AM,15.8,6.8,68,30.27,10.0,NNW,9.2,-,N/A,,Clear,340,2013-02-20 16:45:00
11:45 AM,19.4,6.8,58,30.27,10.0,NNW,11.5,-,N/A,,Clear,340,2013-02-20 17:45:00
12:45 PM,21.2,6.8,54,30.27,10.0,WNW,12.7,-,N/A,,Clear,300,2013-02-20 18:45:00
1:45 PM,23.0,8.6,54,30.27,10.0,NW,8.1,-,N/A,,Clear,320,2013-02-20 19:45:00
2:45 PM,24.8,8.6,50,30.29,10.0,WNW,10.4,-,N/A,,Clear,290,2013-02-20 20:45:00
3:45 PM,24.8,8.6,50,30.30,10.0,WNW,11.5,-,N/A,,Scattered Clouds,290,2013-02-20 21:45:00
4:45 PM,24.8,6.8,46,30.31,110.0,NW,12.7,-,N/A,,Scattered Clouds,320,2013-02-20 22:45:00
5:45 PM,21.2,6.8,54,30.32,10.0,NW,10.4,-,N/A,,Scattered Clouds,320,2013-02-20 23:45:00
6:45 PM,19.4,6.8,58,30.33,10.0,NNW,9.2,-,N/A,,Scattered Clouds,340,2013-02-21 00:45:00
7:45 PM,19.4,6.8,58,30.32,10.0,North,10.4,-,N/A,,Scattered Clouds,350,2013-02-21 01:45:00
8:45 PM,17.6,6.8,63,30.32,10.0,North,10.4,-,N/A,,Mostly Cloudy,360,2013-02-21 02:45:00
9:45 PM,14.0,6.8,73,30.34,10.0,North,11.5,-,N/A,,Scattered Clouds,10,2013-02-21 03:45:00
9:55 PM,15.8,6.8,68,30.34,10.0,North,12.7,-,N/A,,Clear,10,2013-02-21 03:55:00
10:15 PM,14.0,6.8,73,30.34,10.0,North,10.4,-,N/A,,Clear,10,2013-02-21 04:15:00
10:35 PM,14.0,6.8,73,30.35,10.0,NNE,11.5,-,N/A,,Clear,20,2013-02-21 04:35:00
10:45 PM,14.0,6.8,73,30.35,10.0,NNE,10.4,-,N/A,,Scattered Clouds,20,2013-02-21 04:45:00
10:55 PM,14.0,6.8,73,30.36,10.0,NNE,16.1,-,N/A,,Clear,30,2013-02-21 04:55:00
11:15 PM,12.2,5.0,73,30.36,10.0,NNE,13.8,-,N/A,,Clear,20,2013-02-21 05:15:00
11:35 PM,12.2,5.0,73,30.37,10.0,NNE,8.1,-,N/A,,Clear,20,2013-02-21 05:35:00
11:55 PM,10.4,5.0,79,30.38,10.0,NNE,4.6,-,N/A,,Clear,20,2013-02-21 05:55:00